Погода в Московской

Россия / Кировская область     58°49′33″N   53°07′12″E
темп.,
°C
ветер,
м/с
пор.,
м/с
влажн.,
%
обл.,
%
осадки,
мм/ч
давл.,
гПа
погр.,
м
13 июня, вс
вс1300:00+13вюв31287100 0.0 1017523
03:00+13вюв3109079 0.0 1016382
06:00+16юв497166 0.0 1015466
09:00+21ююв58565 0.0 10141177
12:00+20ю5976100 0.9 10141227
15:00+19ю4990100 3.6 1014847
18:00+19ю499126 2.0 1014546
21:00+16ююв399887 2.1 1014249
14 июня, пн
пн1400:00+15ю3119810 5.0 1014295
03:00+14ю3109813 5.0 1015227
06:00+17ю3109396 0.0 1015382
09:00+22ю586622 0.0 1014878
12:00+23ююз5962100 1.8 10141460
15:00+22юз5107119 3.6 10141314
18:00+19зюз4118821 1.8 1013670
21:00+16юз3109537 1.8 1014278
15 июня, вт
вт1500:00+14юз289789 0.0 1014168
03:00+14зюз2598100 0.0 1015111
06:00+18зюз24829 0.0 1015245
09:00+24з23550 0.0 10141058
12:00+26зюз234393 0.0 10132484
15:00+21сз1169100 0.0 101316
18:00+23ююв11714 0.0 101240
21:00+17юв118411 0.1 101311
16 июня, ср
ср1600:00+16ю119281 0.0 101211
03:00+15ю119293 0.1 101211
06:00+19ю2386100 0.4 1012191
09:00+19ююз258573 0.7 1012253
12:00+23юз478193 1.3 10111064
15:00+26юз510535 2.6 10101737
18:00+23зсз366813 0.1 1009421
21:00+17юз119263 0.4 100911
17 июня, чт
чт1700:00+16ссз41098100 3.4 1009331
03:00+15сз239993 5.1 100988
06:00+14ссз4997100 0.3 1011607
09:00+15с598428 0.4 1012962
12:00+20с69375 0.0 10131913
15:00+20с69345 0.0 10142373
18:00+18ссз594995 0.0 10161180
21:00+16с4105143 0.0 1018873